Regional Weather Roundup
Issued by NWS Kansas City/Pleasant Hill, MO

Home | Current Version | Previous Version | Text Only | Print | Product List | Glossary On
Versions: 1 2 3 4 5 6 7 8 9 10 11 12 13 14 15 16 17 18 19 20 21 22 23 24 25 26 27 28 29 30 31 32 33 34 35 36 37 38 39 40 41 42 43 44 45 46 47 48 49 50
000
ASUS43 KEAX 011711
RWREAX

WEATHER ROUNDUP FOR EASTERN KANSAS AND NORTHWEST MISSOURI
NATIONAL WEATHER SERVICE KANSAS CITY/PLEASANT HILL MO
1200 PM CDT WED OCT 01 2014

KSZ040-057-103>105-MOZ028-029-037-043-011800-
...KANSAS CITY METROPOLITAN AREA...

CITY           SKY/WX    TMP DP  RH WIND       PRES   REMARKS
K.C. INTL      PTSUNNY   69  67  93 S10       29.79S
K.C. DOWNTOWN  CLOUDY    72  67  84 E7        29.79S
LEES SUMMIT    PTSUNNY   72  66  81 S7        29.81S
OLATHE - IXD   MOSUNNY   75  67  76 SW14G23   29.78F
OLATHE - OJC   MOSUNNY   75  67  76 SW10      29.78F
LAWRENCE       PTSUNNY   76  66  71 VRB3      29.77S

$$

MOZ001>008-011>017-020>025-030>033-038>040-044>046-053-054-011800-
...NORTHERN AND CENTRAL MISSOURI...

CITY           SKY/WX    TMP DP  RH WIND       PRES   REMARKS
ST. JOSEPH     CLOUDY    70  66  87 SE8       29.78S
MOSBY            N/A     66  66 100 E6        29.81S THUNDER
WHITEMAN AFB   MOSUNNY   75  66  73 VRB3      29.81R
CLINTON        PTSUNNY   81  68  65 S9        29.81R
SEDALIA        PTSUNNY   73  64  73 NE9       29.83S
WARSAW         NOT AVBL
MARSHALL       CLOUDY    70  68  94 E7        29.85R
CHILLICOTHE      N/A     65  62  90 SE6       29.83F
MOBERLY        TSTM      64  61  88 E6        29.86F
KIRKSVILLE     HVY RAIN  63  62  97 SE5       29.87R VSB 1/4

$$

MOZ041-047>049-056>058-063>065-088>090-097-011800-
...EASTERN AND SOUTHERN MISSOURI...

CITY           SKY/WX    TMP DP  RH WIND       PRES   REMARKS
ST. LOUIS INTL MOSUNNY   81  61  50 S12       29.90F
SPIRIT OF STL  PTSUNNY   81  62  52 SE10      29.88F
COLUMBIA       PTSUNNY   73  61  65 NE12      29.86F
JEFFERSON CITY PTSUNNY   83  60  45 S9        29.83F
MEXICO         CLOUDY    68  66  94 NE7       29.88F
HANNIBAL       CLOUDY    64  61  88 E8        29.88F THUNDER
ROLLA          PTSUNNY   84  60  44 S18G25    29.86S
LEBANON        SUNNY     82  63  51 S15G22    29.87S
OSAGE BEACH    MOSUNNY   84  64  51 SW13G20   29.84F
SPRINGFIELD    SUNNY     81  65  58 S20       29.84F
BRANSON        MOSUNNY   84  66  54 SW12      29.89F
NEVADA         PTSUNNY   84  68  58 S20G25    29.80F
JOPLIN         SUNNY     83  68  60 S23G29    29.80F
WEST PLAINS    SUNNY     82  64  54 S10       29.92S

$$

IAZ060-094-KSZ022-034>040-054-083-096-NEZ052-066-093-011800-
...KANSAS...SOUTHEAST NEBRASKA AND IOWA...

CITY           SKY/WX    TMP DP  RH WIND       PRES   REMARKS
TOPEKA         PTSUNNY   77  68  73 S6        29.76F
MANHATTAN      MOSUNNY   77  67  71 W7        29.74F
EMPORIA        MOSUNNY   77  65  66 S8        29.76S
CHANUTE        PTSUNNY   79  70  74 S16       29.77F
WICHITA        MOSUNNY   82  64  54 S10       29.73F
OMAHA          PTSUNNY   69  62  78 VRB6      29.76S
LINCOLN        CLOUDY    67  61  81 CALM      29.77S
FALLS CITY     PTSUNNY   72  67  84 S8        29.75F
LAMONI         CLOUDY    64  61  90 SE12      29.81R
DES MOINES     CLOUDY    67  61  81 S8        29.79S

$$




USA.gov is the U.S. government's official web portal to all federal, state and local government web resources and services.